Location: Brede
(50.9167°N, 0.6000°E)
Time: 20:12:45
(UTC+00:00)

Vanguard 1 Rocket - Pass Details

Date: 30 November 2020
Orbit: 655 x 4221 km, 34.3° (Epoch: 17 January)

Event Time Altitude Azimuth Distance (km) Brightness Sun altitude
Exits shadow 02:07:14 44° 159° (SSE) 4,453 10.5 -49.9°
Drops below altitude 10° 02:21:43 10° 104° (ESE) 5,372 11.6 -48.0°
Sets 02:25:15 0° 98° (E) 5,978 12.1 -47.5°
